Temperature
16 17 17 17 17 17 18 18 18 18 18 18 18 18 18 17 17 17 17 17 17 17 17 16 16 16 16 16 16 16 16 16 16 16 16 16 16 16 15 15 15 15 15
16 16 16 17 17 17 17 17 17 18 18 18 17 17 17 17 17 17 17 17 17 17 17 16 16 16 16 16 16 16 16 16 16 16 16 15 15 15 15 15 15 15 15
16 16 16 16 17 17 17 17 17 17 17 17 17 17 17 17 17 17 17 17 17 17 16 16 16 16 16 16 16 16 16 16 15 15 15 15 15 15 15 15 15 15 14
16 16 16 16 16 16 17 17 17 17 17 17 17 17 17 17 17 17 17 16 16 16 16 16 16 16 16 16 16 15 15 15 15 15 15 15 15 15 15 15 15 14 14
16 16 16 16 16 16 16 16 16 17 17 17 17 17 17 17 17 17 16 16 16 16 16 16 16 16 16 15 15 15 15 15 15 15 15 15 15 14 14 14 14 14 14
16 16 16 16 16 16 16 16 16 16 16 16 16 16 16 16 16 16 16 16 16 16 16 16 16 15 15 15 15 15 15 15 15 14 14 14 14 14 14 14 14 14 14
15 16 16 16 16 16 16 16 16 16 16 16 16 16 16 16 16 16 16 16 16 16 16 15 15 15 15 15 15 15 15 15 14 14 14 14 14 14 14 14 14 14 14
15 15 15 15 15 16 16 16 16 16 16 16 16 16 16 16 16 16 16 16 16 16 15 15 15 15 15 15 15 15 15 14 14 14 14 14 14 14 14 14 14 14 14
15 15 15 15 15 15 15 15 15 15 16 16 16 16 16 16 16 16 16 15 15 15 15 15 15 15 15 15 15 15 14 14 14 14 14 14 14 14 14 14 14 14 14
14 14 14 14 15 15 15 15 15 15 15 15 15 15 15 15 15 15 15 15 15 15 15 15 15 15 15 15 15 14 14 14 14 14 14 14 14 14 14 14 14 14 14
14 14 14 14 14 14 14 15 15 15 15 15 15 15 15 15 15 15 15 15 15 15 15 15 15 15 15 15 15 14 14 14 14 14 14 14 14 14 14 14 14 14 14
13 13 13 13 14 14 14 14 14 15 15 15 15 15 15 15 15 15 15 15 15 15 15 15 15 15 15 15 15 14 14 14 14 14 14 14 14 14 14 14 14 14 14
12 12 12 13 13 13 14 14 14 14 14 14 15 15 15 15 15 15 15 15 15 14 14 14 14 14 15 15 15 14 14 14 14 14 14 14 14 14 14 14 14 14 14
12 12 12 12 12 13 13 13 13 14 14 14 14 14 14 14 14 14 14 15 14 14 14 14 14 14 14 14 14 14 14 14 14 14 14 14 14 14 14 14 14 14 14
11 11 12 12 12 12 12 12 13 13 13 13 14 14 14 14 14 14 14 14 14 14 14 14 14 14 14 14 14 14 14 14 14 14 14 14 14 14 14 14 14 14 14
10 11 11 11 11 12 12 12 12 12 13 13 13 13 14 14 14 14 14 14 14 14 14 14 14 14 14 14 14 14 14 14 14 14 14 14 14 14 14 14 14 14 14
10 10 10 11 11 11 11 11 12 12 12 13 13 13 13 13 13 13 14 14 14 14 14 14 14 14 14 14 14 14 14 14 14 14 14 14 14 14 14 14 14 13 14
9 10 10 10 10 11 11 11 11 11 12 12 12 13 13 13 13 13 13 13 14 14 14 13 13 13 13 13 14 14 14 14 14 14 14 14 14 14 14 14 13 13 13
9 9 9 10 10 10 10 11 11 11 11 12 12 12 12 12 13 13 13 13 13 13 13 13 13 13 13 13 13 13 13 13 13 13 14 14 14 14 14 13 13 13 13
8 9 9 9 9 10 10 10 10 11 11 11 11 12 12 12 12 12 12 13 13 13 13 13 13 13 13 13 13 13 13 13 13 13 13 13 13 13 13 13 13 13 13
8 8 8 8 9 9 9 10 10 10 11 11 11 11 11 12 12 12 12 12 12 12 12 12 13 12 12 12 12 12 13 13 13 13 13 13 13 13 13 13 13 13 13
8 8 8 8 8 8 9 9 9 9 10 10 10 11 11 11 11 11 12 12 12 12 12 12 12 12 12 12 12 12 12 12 12 12 12 12 13 13 13 13 13 13 13
7 7 7 7 8 8 8 8 9 9 9 9 9 10 10 10 11 11 11 11 11 11 12 12 12 12 12 12 12 11 11 11 11 12 12 12 12 12 12 12 13 13 13
7 7 7 7 7 7 7 8 8 8 8 9 9 9 10 10 11 10 10 11 11 11 11 11 11 11 11 11 11 11 11 11 11 11 11 11 12 12 12 12 12 12 12
6 6 6 7 7 7 7 7 7 8 8 8 8 9 9 10 10 10 10 10 10 10 11 11 11 11 11 11 11 11 11 11 11 10 10 11 11 11 11 12 12 12 12
6 6 6 6 6 6 7 7 7 7 7 8 8 8 9 9 9 9 10 10 10 10 10 10 10 10 10 10 10 10 10 10 10 10 10 10 10 11 11 11 11 11 11
Wind_Speed
1 1 6 8 9 11 12 12 12 12 12 12 12 13 14 14 15 15 15 15 14 14 13 13 13 13 14 15 16 16 17 17 17 16 15 15 16 16 16 15 14 14 15
2 3 6 8 8 9 11 11 11 12 11 12 12 12 13 13 14 14 14 14 13 13 13 13 13 13 14 14 15 15 16 16 16 15 15 15 15 15 15 14 14 13 15
4 4 5 6 7 8 9 10 11 11 11 12 12 12 12 12 13 13 14 13 13 13 12 12 13 13 13 14 14 15 15 15 14 14 13 12 14 14 14 14 14 14 14
4 4 4 5 6 7 7 8 10 10 11 11 12 12 12 12 12 13 13 13 12 12 12 12 13 13 13 13 13 13 14 13 12 11 9 9 11 13 13 13 13 13 13
4 4 4 5 4 6 6 6 8 10 10 11 12 12 12 11 12 13 13 12 12 13 12 13 13 13 13 12 12 12 12 11 10 10 9 9 9 12 13 12 12 12 12
4 4 3 4 3 4 6 6 7 8 10 10 11 12 12 12 12 12 13 12 13 13 13 13 13 13 12 12 11 11 10 9 10 10 9 9 9 12 12 12 12 11 11
3 4 3 2 2 3 5 6 6 7 9 10 11 11 12 12 13 12 13 13 14 14 14 13 14 13 12 11 10 9 9 9 10 9 9 9 10 11 11 11 10 10 10
3 3 2 1 0 2 4 6 7 7 8 9 11 11 11 13 13 12 13 14 14 15 15 14 14 13 12 10 9 8 7 8 9 9 9 9 10 11 10 10 9 9 9
5 5 4 3 2 2 4 6 7 8 8 9 10 11 11 12 13 13 13 14 15 16 16 15 14 14 12 11 9 8 7 7 9 8 9 9 11 11 10 9 9 8 8
5 4 4 4 3 3 3 5 7 8 8 9 11 11 11 12 13 14 14 14 15 16 16 16 14 13 12 11 9 8 7 7 8 8 9 10 11 11 11 9 8 8 7
6 5 4 4 4 4 5 5 5 7 8 9 10 11 11 10 12 13 14 15 16 17 17 16 15 14 12 11 10 9 7 6 8 8 9 11 12 12 11 10 9 8 7
7 6 4 4 4 4 5 4 4 5 6 7 8 9 9 9 10 12 14 16 17 17 17 17 16 14 12 9 9 9 6 7 8 8 10 13 14 12 12 11 9 8 7
5 6 6 5 4 3 3 3 2 3 4 5 7 9 8 8 8 9 9 11 13 15 13 14 14 11 10 9 8 8 7 7 8 9 11 14 14 13 12 12 11 9 8
5 6 6 5 4 4 3 2 2 2 2 3 5 8 7 5 5 6 6 8 10 10 10 10 9 10 10 10 9 8 8 7 8 10 12 15 15 15 14 13 12 11 10
6 7 7 6 5 5 3 3 2 3 3 3 3 6 7 6 6 7 6 8 9 10 9 8 8 8 8 8 8 8 7 8 9 10 12 16 16 16 15 14 13 12 11
6 6 6 6 6 5 3 3 3 3 3 3 3 5 7 6 6 7 7 7 8 10 10 9 9 8 7 6 6 7 8 8 10 11 11 13 16 16 15 14 13 13 12
6 7 6 6 5 4 4 4 3 3 3 2 3 5 6 6 6 7 7 7 8 10 10 8 8 6 6 5 6 6 7 8 9 10 12 12 14 15 16 15 14 13 12
6 6 6 6 5 5 4 4 3 2 2 2 3 3 5 6 7 6 6 7 8 8 8 7 7 7 6 6 5 6 6 6 8 10 11 12 13 13 15 16 16 15 14
5 6 6 6 6 5 5 4 3 2 2 2 2 2 3 5 6 5 5 6 7 7 7 8 7 7 6 6 6 5 5 5 6 8 8 11 12 13 13 15 16 16 15
6 5 5 6 6 5 4 3 2 2 2 2 2 3 4 4 5 5 4 6 6 6 6 7 7 7 6 6 6 5 5 5 5 6 8 9 11 13 14 13 13 14 16
6 6 6 6 5 4 3 2 2 2 2 2 3 4 4 4 5 5 5 6 6 7 8 8 6 7 6 4 3 2 3 4 6 6 6 6 8 11 12 13 13 12 13
7 7 7 6 5 4 3 3 2 2 2 3 3 3 4 5 4 4 6 6 6 6 7 7 7 6 5 6 4 3 2 3 4 6 6 7 7 7 9 12 13 13 13
7 7 7 7 6 5 4 2 2 1 1 2 3 3 4 4 4 3 4 5 5 6 6 7 7 8 7 6 5 4 3 4 2 3 5 6 6 6 6 8 12 13 14
7 7 7 6 6 5 4 2 2 2 3 3 3 3 3 3 3 4 4 5 5 5 6 7 7 6 7 6 5 4 3 3 3 2 3 4 6 7 7 6 9 12 14
6 6 6 6 6 6 4 3 2 3 3 3 3 2 2 2 3 3 4 4 5 5 6 6 6 7 6 6 5 3 2 2 2 2 3 4 4 6 7 7 7 9 13
6 5 6 6 6 6 4 3 2 3 3 3 3 2 2 2 2 2 3 4 5 5 6 6 6 6 6 6 6 5 4 3 3 2 3 4 5 5 6 7 7 8 11
Wind_Direction
282 177 140 139 144 150 146 145 144 142 140 135 132 132 131 129 127 128 128 127 127 125 123 120 117 114 112 110 108 107 105 103 101 97 94 94 96 95 91 86 83 80 83
173 142 133 134 137 147 152 150 149 150 149 147 144 142 142 139 137 137 135 134 133 131 129 127 124 122 118 115 114 112 110 107 105 100 94 94 98 99 96 93 90 88 86
117 121 124 132 137 143 151 156 156 157 159 157 155 153 152 150 148 146 144 142 140 138 136 133 128 127 124 121 120 119 116 113 109 104 98 98 102 103 101 98 95 92 90
95 101 116 123 137 142 150 159 164 165 167 168 164 163 162 159 158 156 153 151 149 146 142 139 133 131 130 128 127 126 122 118 114 109 101 104 108 108 105 102 98 95 93
63 69 104 124 134 146 152 162 171 176 177 177 174 171 170 169 166 164 161 158 156 152 148 145 140 137 137 136 133 130 126 121 117 115 108 112 114 112 108 104 100 97 96
54 46 83 129 144 161 165 172 175 183 189 187 183 180 179 177 173 170 167 163 160 157 154 151 148 145 146 144 141 136 131 124 121 122 120 122 121 119 114 110 108 105 103
44 35 54 131 155 187 191 187 187 187 196 197 192 189 186 183 180 177 174 170 164 162 160 158 156 154 154 154 150 143 136 126 129 131 132 134 133 127 123 120 118 113 110
46 32 31 44 218 228 219 205 202 198 199 203 201 197 193 189 185 180 178 176 172 169 166 164 163 162 162 162 158 149 139 129 136 137 144 147 145 137 131 127 124 121 117
33 24 13 8 349 277 244 224 217 211 208 207 206 205 197 195 188 183 179 179 178 174 172 168 168 169 170 170 168 160 147 137 143 145 153 158 155 148 141 137 133 127 123
23 16 2 353 339 316 276 239 232 226 221 215 211 208 202 196 193 188 185 184 182 179 176 172 173 173 174 176 176 170 159 149 157 158 165 171 167 158 153 150 146 141 136
1 353 350 345 337 315 282 253 243 235 231 224 216 212 204 201 197 194 190 188 186 183 181 178 177 177 177 181 182 178 170 165 167 171 173 178 176 168 163 162 161 157 153
343 338 336 330 330 325 298 273 248 242 238 228 215 206 203 201 199 197 194 192 190 188 186 184 181 181 179 184 188 186 182 179 178 183 185 184 183 178 174 173 174 173 170
324 326 328 324 325 322 313 297 276 258 244 234 219 207 203 200 200 196 191 192 193 190 187 188 183 183 184 187 190 192 195 192 191 195 194 190 189 186 183 182 184 186 185
320 319 322 323 318 310 304 303 285 275 258 243 231 215 199 196 199 191 187 186 187 188 185 184 184 187 191 195 197 198 200 203 201 202 201 196 196 194 192 190 193 196 197
313 314 318 319 313 307 306 297 290 265 259 243 233 226 207 201 203 194 191 188 188 187 186 185 187 191 196 201 205 205 206 208 204 204 204 201 200 200 200 200 200 203 206
311 311 314 315 310 311 305 286 277 270 264 252 236 234 217 208 205 197 192 190 191 191 191 190 191 194 200 203 209 212 210 208 206 203 204 203 203 203 203 206 207 209 211
307 309 311 310 310 309 298 284 283 278 270 257 252 239 226 217 209 203 194 195 195 192 189 189 189 191 198 205 212 215 211 207 204 203 201 199 202 206 205 207 208 210 212
319 316 310 311 311 304 297 285 284 284 274 268 265 251 232 227 211 201 199 199 197 192 188 190 190 194 201 205 211 217 213 206 204 203 199 198 200 205 210 212 212 213 216
317 314 313 310 306 301 292 288 285 285 280 282 275 263 251 233 216 201 201 200 194 192 194 196 194 193 199 205 212 215 213 210 207 202 199 200 202 203 207 215 217 216 217
329 323 312 310 300 295 291 286 286 288 285 298 280 264 257 244 218 203 204 201 192 191 197 198 195 194 196 199 208 217 220 215 208 207 206 203 205 208 209 212 216 219 219
337 334 323 312 305 303 301 283 272 271 272 270 265 267 260 249 228 205 211 205 198 196 199 199 198 193 198 183 177 217 246 229 219 216 210 206 207 208 208 211 213 214 220
330 329 325 316 309 300 284 269 248 246 245 246 259 268 261 252 237 218 209 208 202 199 198 198 192 195 199 186 174 165 216 247 243 228 216 212 213 207 209 214 214 214 218
325 324 322 319 317 309 300 296 300 294 284 261 257 250 249 246 238 224 219 211 209 203 202 200 195 194 199 198 182 171 177 214 228 239 223 216 214 211 215 215 215 217 218
319 322 323 322 322 315 307 290 263 254 257 256 254 254 252 241 229 225 215 213 209 211 209 204 199 195 190 198 201 204 195 171 181 225 247 227 220 219 219 221 218 220 220
325 329 329 333 333 336 339 315 273 263 258 260 261 257 260 252 235 227 221 215 215 214 213 213 209 199 197 198 197 196 207 205 180 191 230 228 234 230 226 225 221 221 223
335 340 340 345 344 343 349 343 314 283 273 268 267 260 261 253 239 234 231 221 223 220 214 213 213 206 206 203 199 193 186 189 193 194 231 241 243 238 233 226 224 222 226
Height
1519 1519 1519 1520 1521 1522 1522 1523 1525 1526 1527 1528 1529 1530 1531 1532 1532 1533 1534 1534 1535 1536 1536 1537 1538 1538 1539 1540 1540 1540 1541 1541 1541 1541 1541 1541 1541 1541 1541 1541 1540 1540 1540
1518 1519 1519 1520 1521 1522 1523 1524 1525 1526 1527 1528 1529 1530 1531 1532 1533 1533 1534 1535 1536 1536 1537 1538 1538 1539 1540 1540 1541 1541 1542 1542 1542 1543 1543 1543 1543 1542 1542 1542 1542 1541 1541
1518 1518 1519 1520 1521 1521 1523 1524 1525 1526 1527 1528 1529 1530 1531 1532 1533 1534 1534 1535 1536 1537 1538 1538 1539 1540 1541 1541 1542 1542 1543 1543 1543 1544 1544 1544 1544 1544 1544 1543 1543 1543 1543
1518 1518 1519 1519 1520 1521 1522 1523 1524 1525 1527 1528 1529 1530 1531 1532 1533 1534 1534 1536 1536 1537 1538 1539 1540 1541 1542 1542 1543 1543 1544 1544 1544 1545 1545 1545 1545 1545 1545 1545 1544 1544 1544
1517 1518 1518 1519 1520 1521 1522 1523 1524 1525 1526 1527 1528 1529 1530 1531 1532 1533 1534 1535 1536 1537 1538 1539 1540 1541 1542 1543 1543 1544 1544 1545 1545 1546 1546 1546 1546 1546 1546 1546 1546 1545 1545
1517 1517 1518 1518 1519 1520 1521 1522 1522 1524 1525 1526 1527 1528 1530 1531 1532 1533 1534 1535 1536 1537 1538 1539 1540 1541 1542 1543 1544 1544 1545 1545 1546 1546 1547 1547 1547 1547 1547 1547 1547 1547 1547
1516 1516 1517 1517 1518 1519 1520 1520 1521 1522 1523 1525 1526 1527 1528 1530 1531 1532 1533 1534 1535 1537 1538 1539 1540 1541 1543 1543 1544 1545 1545 1546 1546 1547 1547 1548 1548 1548 1548 1548 1548 1548 1548
1515 1515 1515 1516 1516 1517 1518 1519 1520 1520 1522 1523 1524 1525 1527 1528 1529 1531 1532 1533 1535 1536 1537 1538 1540 1541 1542 1543 1544 1545 1546 1546 1547 1547 1548 1548 1549 1549 1549 1549 1549 1549 1549
1513 1513 1513 1513 1514 1514 1515 1516 1517 1518 1519 1521 1522 1523 1525 1526 1528 1529 1531 1532 1533 1535 1536 1538 1539 1540 1542 1543 1544 1545 1545 1546 1547 1548 1548 1549 1549 1549 1550 1550 1550 1549 1549
1511 1511 1511 1511 1511 1511 1512 1513 1514 1516 1517 1518 1520 1521 1523 1524 1525 1527 1529 1530 1532 1533 1535 1536 1538 1539 1541 1542 1543 1544 1545 1546 1547 1547 1548 1549 1549 1550 1550 1550 1550 1550 1550
1508 1508 1508 1508 1508 1508 1509 1510 1511 1512 1514 1515 1516 1518 1520 1521 1523 1525 1526 1528 1530 1532 1533 1535 1536 1538 1539 1541 1542 1543 1544 1545 1546 1547 1548 1548 1549 1549 1550 1550 1550 1550 1550
1505 1505 1505 1505 1505 1505 1505 1506 1507 1508 1510 1511 1513 1514 1516 1518 1520 1522 1524 1526 1528 1530 1531 1533 1535 1536 1538 1539 1541 1542 1543 1544 1545 1546 1547 1548 1548 1549 1549 1549 1550 1550 1550
1502 1502 1502 1501 1501 1501 1501 1502 1503 1504 1505 1507 1509 1511 1513 1515 1516 1518 1520 1523 1525 1527 1529 1531 1532 1534 1535 1537 1539 1540 1541 1542 1543 1545 1546 1546 1547 1548 1548 1549 1549 1549 1549
1499 1498 1498 1497 1497 1497 1497 1498 1498 1500 1501 1502 1504 1506 1508 1510 1512 1514 1516 1518 1521 1523 1525 1527 1529 1531 1533 1535 1536 1538 1539 1540 1541 1543 1544 1545 1546 1546 1547 1547 1547 1548 1548
1496 1494 1494 1493 1493 1493 1493 1493 1494 1495 1496 1498 1500 1502 1504 1506 1508 1510 1512 1514 1517 1519 1522 1524 1526 1528 1530 1532 1534 1535 1537 1538 1539 1540 1541 1543 1543 1544 1545 1545 1546 1546 1547
1492 1491 1490 1489 1489 1489 1488 1489 1490 1491 1492 1494 1495 1497 1499 1501 1503 1506 1508 1510 1513 1515 1518 1520 1523 1525 1527 1529 1530 1532 1534 1535 1536 1538 1539 1540 1541 1542 1542 1543 1544 1544 1545
1488 1487 1486 1485 1485 1485 1485 1485 1485 1486 1488 1489 1491 1492 1494 1496 1498 1500 1503 1505 1508 1511 1514 1516 1519 1521 1523 1525 1527 1529 1530 1532 1533 1534 1536 1537 1538 1539 1539 1540 1541 1542 1542
1485 1483 1483 1482 1481 1480 1481 1481 1481 1482 1483 1485 1486 1488 1489 1491 1493 1496 1498 1500 1503 1506 1509 1512 1514 1516 1519 1521 1523 1525 1526 1528 1529 1531 1532 1533 1534 1535 1536 1537 1538 1539 1539
1482 1480 1479 1478 1477 1476 1476 1477 1477 1478 1479 1480 1481 1483 1485 1486 1488 1490 1492 1495 1498 1501 1504 1507 1509 1511 1514 1516 1518 1520 1522 1524 1525 1527 1528 1529 1530 1531 1532 1533 1534 1535 1536
1480 1477 1476 1474 1473 1472 1472 1472 1472 1473 1474 1475 1476 1478 1480 1481 1482 1484 1487 1490 1493 1496 1498 1502 1504 1507 1509 1512 1514 1516 1518 1519 1521 1522 1523 1525 1526 1527 1528 1529 1530 1531 1532
1477 1474 1472 1471 1469 1468 1468 1467 1467 1468 1469 1470 1472 1473 1474 1476 1478 1479 1482 1485 1487 1490 1492 1496 1499 1502 1504 1507 1510 1511 1513 1515 1516 1517 1518 1519 1521 1522 1523 1524 1525 1526 1527
1474 1472 1469 1467 1466 1465 1464 1463 1463 1464 1464 1465 1466 1468 1469 1471 1473 1474 1476 1479 1482 1485 1487 1490 1493 1496 1498 1502 1504 1506 1508 1510 1510 1511 1513 1514 1515 1516 1517 1519 1520 1521 1522
1472 1469 1466 1464 1463 1461 1460 1460 1459 1460 1459 1461 1462 1463 1465 1466 1468 1469 1471 1474 1477 1479 1482 1485 1487 1490 1492 1496 1498 1500 1502 1502 1504 1505 1506 1508 1509 1511 1512 1513 1514 1515 1516
1470 1467 1464 1461 1460 1458 1457 1456 1456 1455 1455 1456 1457 1458 1460 1461 1463 1465 1467 1470 1471 1474 1476 1479 1481 1484 1487 1489 1492 1494 1496 1496 1498 1498 1500 1502 1503 1504 1506 1507 1508 1509 1510
1469 1465 1463 1460 1457 1455 1454 1453 1453 1452 1453 1453 1454 1454 1455 1456 1458 1460 1462 1464 1466 1469 1471 1474 1476 1478 1481 1483 1485 1487 1490 1491 1492 1493 1493 1494 1496 1497 1499 1501 1502 1503 1504
1467 1464 1461 1458 1456 1453 1452 1451 1451 1450 1450 1450 1449 1449 1450 1452 1453 1455 1458 1460 1462 1464 1466 1468 1471 1473 1475 1477 1479 1482 1484 1485 1486 1488 1488 1488 1489 1490 1492 1493 1495 1496 1497